GW1572 Weather Reports


time (UTC)temp
F
wind
direction
speed
knots
gust
knots
rain 1hr
in
rain 24hr
in
rain mn
in
humidity
%
barometer
mb
20260905130504 72 136 0.0 0.0 0.00 0.00 0.09 99 1007.1
20260905130032 72 143 0.0 0.0 0.00 0.00 0.09 99 1007.1
20260905125613 72 143 0.0 0.0 0.00 0.00 0.09 99 1007.1
20260905124254 71 126 0.0 0.0 0.00 0.00 0.09 99 1006.7
20260905123408 72 128 0.0 0.0 0.00 0.00 0.09 99 1006.7
20260905122951 72 88 0.0 0.9 0.00 0.00 0.09 99 1006.7
20260905122045 72 148 0.0 0.0 0.00 0.00 0.09 99 1006.7
20260905121631 72 134 0.0 0.0 0.00 0.00 0.09 99 1007.1
20260905121200 72 126 0.0 0.0 0.00 0.00 0.09 99 1006.7
20260905120258 72 71 0.9 0.9 0.00 0.00 0.09 99 1007.1
20260905114922 73 172 1.7 1.7 0.00 0.00 0.09 99 1007.1
20260905114452 73 185 2.6 2.6 0.00 0.00 0.00 99 1006.0
20260905114038 73 167 0.9 0.9 0.00 0.00 0.00 99 1005.7
20260905113622 73 144 0.0 0.0 0.00 0.00 0.00 99 1005.0
20260905113136 73 147 0.0 0.0 0.00 0.00 0.00 99 1005.0
20260905112706 73 119 0.0 0.0 0.00 0.00 0.00 99 1005.0
20260905112251 73 140 0.0 0.0 0.00 0.00 0.00 99 1005.0
20260905111821 73 136 0.0 0.0 0.00 0.00 0.00 99 1005.4
20260905111406 73 139 0.0 0.0 0.00 0.00 0.00 99 1005.7
20260905110949 73 168 0.9 0.9 0.00 0.00 0.00 99 1005.4
20260905110519 73 163 0.9 0.9 0.00 0.00 0.00 99 1005.4
20260905110105 73 198 2.6 2.6 0.00 0.00 0.00 99 1005.0
20260905105634 73 147 0.0 0.0 0.00 0.00 0.00 99 1005.4
20260905105147 72 255 7.0 9.6 0.00 0.00 0.00 99 1005.4
20260905104731 72 150 0.0 0.0 0.00 0.00 0.00 99 1004.4
20260905104315 72 139 0.0 0.0 0.00 0.00 0.00 99 1004.0
20260905103859 72 137 0.0 0.0 0.00 0.00 0.00 99 1004.0
20260905103427 72 135 0.0 0.0 0.00 0.00 0.00 99 1004.0
20260905103012 72 140 0.0 0.0 0.00 0.00 0.00 99 1004.0
20260905102542 72 140 0.0 0.0 0.00 0.00 0.00 99 1004.4
20260905102127 72 139 0.0 0.0 0.00 0.00 0.00 99 1004.0
20260905101657 72 140 0.0 0.0 0.00 0.00 0.00 99 1004.0
20260905100256 72 132 0.0 0.0 0.00 0.00 0.00 99 1004.4
20260905095838 72 120 0.0 0.0 0.00 0.00 0.00 99 1004.4
20260905095420 72 146 0.0 0.0 0.00 0.00 0.00 99 1004.7
20260905094101 72 143 0.0 0.0 0.00 0.00 0.00 99 1004.0
20260905093644 72 143 0.0 0.0 0.00 0.00 0.00 99 1004.0
20260905093229 72 144 0.0 0.0 0.00 0.00 0.00 99 1004.4
20260905092812 72 140 0.0 0.0 0.00 0.00 0.00 99 1004.0
20260905091455 72 138 0.0 0.0 0.00 0.00 0.00 99 1004.4
20260905091040 72 138 0.0 0.0 0.00 0.00 0.00 99 1004.4
20260905090626 72 138 0.0 0.0 0.00 0.00 0.00 99 1004.4
20260905090157 72 134 0.0 0.0 0.00 0.00 0.00 99 1004.0
20260905085744 72 135 0.0 0.0 0.00 0.00 0.00 99 1004.4
20260905085329 72 139 0.0 0.0 0.00 0.00 0.00 99 1004.4
20260905084859 72 137 0.0 0.0 0.00 0.00 0.00 99 1004.0
20260905084445 72 140 0.0 0.0 0.00 0.00 0.00 99 1004.4
20260905084028 72 144 0.0 0.0 0.00 0.00 0.00 99 1004.4
20260905083559 72 143 0.0 0.0 0.00 0.00 0.00 99 1004.4
20260905083144 72 140 0.0 0.0 0.00 0.00 0.00 99 1004.4
20260905082727 72 138 0.0 0.0 0.00 0.00 0.00 99 1004.0
20260905082311 73 138 0.0 0.0 0.00 0.00 0.00 99 1004.4
20260905081854 72 138 0.0 0.0 0.00 0.00 0.00 99 1004.4
20260905081438 72 138 0.0 0.0 0.00 0.00 0.00 99 1004.4
20260905081020 72 131 0.0 0.0 0.00 0.00 0.00 99 1004.0
20260905080131 72 131 0.0 0.0 0.00 0.00 0.00 99 1004.0
20260905075714 72 133 0.0 0.0 0.00 0.00 0.00 99 1004.0
20260905074825 72 133 0.0 0.0 0.00 0.00 0.00 99 1004.4
20260905073934 72 133 0.0 0.0 0.00 0.00 0.00 99 1004.0
20260905073032 72 132 0.0 0.0 0.00 0.00 0.00 99 1004.4
20260905072618 72 133 0.0 0.0 0.00 0.00 0.00 99 1004.4
20260905071301 72 135 0.0 0.0 0.00 0.00 0.00 99 1004.7
20260905070830 72 101 0.0 0.0 0.00 0.00 0.00 99 1004.7
20260905070414 72 144 0.0 0.0 0.00 0.00 0.00 99 1004.7
20260905070000 72 144 0.0 0.0 0.00 0.00 0.00 99 1004.7
20260905065544 72 144 0.0 0.0 0.00 0.00 0.00 99 1005.0
20260905065129 72 144 0.0 0.0 0.00 0.00 0.00 99 1005.0
20260905064713 72 144 0.0 0.0 0.00 0.00 0.00 99 1005.0
20260905064257 72 144 0.0 0.0 0.00 0.00 0.00 99 1005.4
20260905063841 72 144 0.0 0.0 0.00 0.00 0.00 99 1005.4
20260905063426 73 144 0.0 0.0 0.00 0.00 0.00 99 1005.4
20260905062509 73 141 0.0 0.0 0.00 0.00 0.00 99 1005.4
20260905062037 73 139 0.0 0.0 0.00 0.00 0.00 99 1005.4
20260905061621 73 138 0.0 0.0 0.00 0.00 0.00 99 1005.7
20260905061204 73 138 0.0 0.0 0.00 0.00 0.00 99 1005.7
20260905060746 73 142 0.0 0.0 0.00 0.00 0.00 99 1006.0
20260905060329 73 142 0.0 0.0 0.00 0.00 0.00 99 1005.7
20260905055912 73 142 0.0 0.0 0.00 0.00 0.00 99 1006.0
20260905055456 73 142 0.0 0.0 0.00 0.00 0.00 99 1006.0
20260905055041 73 142 0.0 0.0 0.00 0.00 0.00 99 1006.0
20260905054625 73 142 0.0 0.0 0.00 0.00 0.00 99 1006.0
20260905054210 73 141 0.0 0.0 0.00 0.00 0.00 99 1006.0
20260905053753 73 140 0.0 0.0 0.00 0.00 0.00 99 1006.0
20260905053323 73 140 0.0 0.0 0.00 0.00 0.00 99 1006.4
20260905052851 73 140 0.0 0.0 0.00 0.00 0.00 99 1006.4
20260905052436 73 138 0.0 0.0 0.00 0.00 0.00 99 1006.4
20260905052020 73 135 0.0 0.0 0.00 0.00 0.00 99 1006.4
20260905051549 74 134 0.0 0.0 0.00 0.00 0.00 99 1006.4
20260905051120 74 132 0.0 0.0 0.00 0.00 0.00 99 1006.0
20260905050219 74 130 0.0 0.0 0.00 0.00 0.00 99 1006.4
20260905045802 74 130 0.0 0.0 0.00 0.00 0.00 99 1006.0
20260905045346 74 130 0.0 0.0 0.00 0.00 0.00 99 1006.0
20260905044915 74 131 0.0 0.0 0.00 0.00 0.00 99 1006.0
20260905044444 74 131 0.0 0.0 0.00 0.00 0.00 99 1006.0
20260905044028 74 126 0.0 0.0 0.00 0.00 0.00 99 1006.4
20260905043614 74 131 0.0 0.0 0.00 0.00 0.00 99 1006.4
20260905043158 74 131 0.0 0.0 0.00 0.00 0.00 99 1006.0
20260905042743 74 131 0.0 0.0 0.00 0.00 0.00 99 1006.0
20260905042257 74 131 0.0 0.0 0.00 0.00 0.00 99 1006.0
20260905041840 74 131 0.0 0.0 0.00 0.00 0.00 99 1006.0
20260905041409 74 131 0.0 0.0 0.00 0.00 0.00 99 1006.0
20260905040950 74 139 0.0 0.0 0.00 0.00 0.00 99 1006.0
20260905040534 74 136 0.0 0.0 0.00 0.00 0.00 99 1006.0
20260905040103 74 133 0.0 0.0 0.00 0.00 0.00 99 1006.0
20260905035632 74 137 0.0 0.0 0.00 0.00 0.00 99 1006.4
20260905035216 74 137 0.0 0.0 0.00 0.00 0.00 99 1006.0
20260905034800 74 138 0.0 0.0 0.00 0.00 0.00 99 1006.0
20260905034344 74 136 0.0 0.0 0.00 0.00 0.00 99 1006.0
20260905033927 74 140 0.0 0.0 0.00 0.00 0.00 99 1006.0
20260905033510 74 133 0.0 0.0 0.00 0.00 0.00 99 1006.4
20260905033051 74 138 0.0 0.0 0.00 0.00 0.00 99 1006.4
20260905032635 74 138 0.0 0.0 0.00 0.00 0.00 99 1006.4
20260905032204 75 138 0.0 0.0 0.00 0.00 0.00 99 1006.0
20260905031730 75 140 0.0 0.0 0.00 0.00 0.00 99 1006.0
20260905031312 75 134 0.0 0.0 0.00 0.00 0.00 99 1006.0
20260905030842 75 135 0.0 0.0 0.00 0.00 0.00 99 1006.0
20260905025938 75 139 0.0 0.0 0.00 0.00 0.00 99 1006.0
20260905025522 75 139 0.0 0.0 0.00 0.00 0.00 99 1006.0
20260905025106 75 138 0.0 0.0 0.00 0.00 0.00 99 1006.0
20260905024650 75 135 0.0 0.0 0.00 0.00 0.00 99 1006.0
20260905023747 75 141 0.0 0.0 0.00 0.00 0.00 99 1006.0
20260905022411 76 141 0.0 0.0 0.00 0.00 0.00 99 1006.0
20260905021938 76 140 0.0 0.0 0.00 0.00 0.00 98 1006.0
20260905021521 76 140 0.0 0.0 0.00 0.00 0.00 99 1006.0
20260905021104 76 142 0.0 0.0 0.00 0.00 0.00 98 1006.4
20260905020649 76 144 0.0 0.0 0.00 0.00 0.00 98 1006.0
20260905020234 76 140 0.0 0.0 0.00 0.00 0.00 98 1006.0
20260905015818 76 133 0.0 0.0 0.00 0.00 0.00 98 1006.0
20260905014931 76 143 0.0 0.0 0.00 0.00 0.00 98 1006.0
20260905014459 76 137 0.0 0.0 0.00 0.00 0.00 98 1006.0
20260905014044 77 138 0.0 0.0 0.00 0.00 0.00 97 1006.0
20260905013629 77 143 0.0 0.0 0.00 0.00 0.00 97 1006.0
20260905013212 77 143 0.0 0.0 0.00 0.00 0.00 97 1006.0
20260905012741 77 143 0.0 0.0 0.00 0.00 0.00 97 1006.0
20260905012323 77 143 0.0 0.0 0.00 0.00 0.00 97 1006.0
20260905011907 77 142 0.0 0.0 0.00 0.00 0.00 96 1006.0
20260905011449 77 140 0.0 0.0 0.00 0.00 0.00 96 1006.0
20260905010544 78 140 0.0 0.0 0.00 0.00 0.00 95 1006.0
20260905010128 78 141 0.0 0.0 0.00 0.00 0.00 96 1005.7
20260905005711 78 136 0.0 0.0 0.00 0.00 0.00 96 1005.7
20260905005255 78 135 0.0 0.0 0.00 0.00 0.00 95 1005.7
20260905004824 78 135 0.0 0.0 0.00 0.00 0.00 95 1005.7
20260905004407 78 135 0.0 0.0 0.00 0.00 0.00 95 1005.4
20260905003950 78 135 0.0 0.0 0.00 0.00 0.00 95 1005.4
20260905003104 79 130 0.0 0.0 0.00 0.00 0.00 95 1005.4
20260905002648 79 126 0.0 0.0 0.00 0.00 0.00 94 1005.0
20260905002231 79 110 0.0 0.0 0.00 0.00 0.00 93 1005.0
20260905001817 79 140 0.0 0.0 0.00 0.00 0.00 93 1005.0
20260905001400 80 136 0.0 0.0 0.00 0.00 0.00 92 1005.0
20260905000943 80 135 0.0 0.0 0.00 0.00 0.00 92 1005.0
20260905000525 81 90 0.0 0.0 0.00 0.00 0.00 91 1004.7
20260905000105 81 131 0.0 0.0 0.00 0.00 0.00 90 1005.0
20260904235217 82 146 0.0 0.0 0.00 0.00 0.00 88 1004.7
20260904234801 83 147 0.0 0.0 0.00 0.00 0.00 87 1004.7
20260904234331 83 142 0.0 0.0 0.00 0.00 0.00 87 1004.7
20260904233914 83 143 0.0 0.0 0.00 0.00 0.00 87 1004.7
20260904233443 84 119 0.0 0.0 0.00 0.00 0.00 85 1004.7
20260904233012 84 84 0.9 0.9 0.00 0.00 0.00 86 1004.4
20260904232111 85 149 0.0 0.0 0.00 0.00 0.00 83 1004.7
20260904231654 86 147 0.0 0.0 0.00 0.00 0.00 81 1004.4
20260904231223 87 142 0.0 0.0 0.00 0.00 0.00 79 1004.7
20260904230752 88 127 0.0 0.0 0.00 0.00 0.00 77 1004.4
20260904225849 90 148 0.0 0.0 0.00 0.00 0.00 73 1004.7
20260904225432 90 146 0.0 0.0 0.00 0.00 0.00 74 1005.0
20260904225016 90 150 0.0 0.0 0.00 0.00 0.00 73 1005.4
20260904224529 90 136 0.0 0.0 0.00 0.00 0.00 73 1005.7
20260904223153 88 174 0.0 0.9 0.00 0.00 0.00 77 1005.7
20260904222736 88 332 1.7 1.7 0.00 0.00 0.00 74 1006.0
20260904222319 88 77 0.9 0.9 0.00 0.00 0.00 74 1006.0
20260904221902 89 321 1.7 1.7 0.00 0.00 0.00 74 1006.0
20260904220943 90 141 0.9 1.7 0.00 0.00 0.00 72 1005.7
20260904220523 89 171 0.9 0.9 0.00 0.00 0.00 73 1006.0
20260904215646 89 29 1.7 1.7 0.00 0.00 0.00 72 1006.4
20260904215229 88 170 0.0 0.9 0.00 0.00 0.00 73 1006.4
20260904214755 87 227 0.0 0.0 0.00 0.00 0.00 80 1006.7
20260904214339 84 155 0.0 0.9 0.00 0.00 0.00 83 1006.7
20260904213902 83 141 0.0 0.0 0.00 0.00 0.00 87 1007.1
20260904213446 82 143 0.0 0.0 0.00 0.00 0.00 88 1006.7
20260904213013 82 139 0.0 0.0 0.00 0.00 0.00 87 1006.7
20260904212556 82 141 0.0 0.0 0.00 0.00 0.00 87 1006.7
20260904212140 82 139 0.9 0.9 0.00 0.00 0.00 87 1006.7
20260904211708 82 47 0.9 0.9 0.00 0.00 0.00 87 1006.7
20260904211236 82 100 0.9 0.9 0.00 0.00 0.00 86 1006.7
20260904210331 83 148 0.0 0.0 0.00 0.00 0.00 86 1006.4
20260904205914 83 115 0.0 0.0 0.00 0.00 0.00 85 1006.4
20260904204554 85 141 0.0 0.0 0.00 0.00 0.00 81 1006.4
20260904204137 86 134 0.0 0.0 0.00 0.00 0.00 79 1006.4
20260904203650 86 136 0.0 0.0 0.00 0.00 0.00 78 1006.0
20260904202801 88 142 0.0 0.0 0.00 0.00 0.00 75 1006.0
20260904202346 88 154 0.0 0.9 0.00 0.00 0.00 72 1005.7
20260904201928 89 196 0.9 0.9 0.00 0.00 0.00 70 1006.0
20260904201512 87 122 0.0 0.0 0.00 0.00 0.00 72 1006.0
20260904200606 86 237 1.7 2.6 0.00 0.00 0.00 75 1006.4
20260904195715 88 261 4.3 5.2 0.00 0.00 0.00 73 1006.7
20260904195241 89 199 0.9 0.9 0.00 0.00 0.00 69 1007.1
20260904194810 87 175 0.9 0.9 0.00 0.00 0.00 71 1006.7
20260904194337 88 184 2.6 2.6 0.00 0.00 0.00 70 1007.1
20260904193917 87 209 0.9 0.9 0.00 0.00 0.00 71 1007.1
20260904192958 86 67 1.7 3.5 0.00 0.00 0.00 75 1007.1
20260904192545 89 25 7.0 12.2 0.00 0.00 0.00 73 1007.1
20260904192114 89 143 0.0 0.0 0.00 0.00 0.00 81 1006.7
20260904191643 89 136 0.0 0.0 0.00 0.00 0.00 81 1006.4
20260904191208 89 136 0.0 0.0 0.00 0.00 0.00 82 1006.4
20260904190752 89 135 0.0 0.0 0.00 0.00 0.00 82 1006.0
20260904190323 89 151 0.0 0.0 0.00 0.00 0.00 81 1005.7
20260904185852 90 140 0.0 0.0 0.00 0.00 0.00 79 1005.7
20260904185436 90 141 0.0 0.9 0.00 0.00 0.00 78 1006.0
20260904184531 92 122 0.0 0.0 0.00 0.00 0.00 74 1006.0
20260904184059 93 138 0.0 0.0 0.00 0.00 0.00 72 1006.0
20260904183642 94 128 0.0 0.0 0.00 0.00 0.00 70 1006.4
20260904183225 96 17 0.9 0.9 0.00 0.00 0.00 64 1006.0
20260904182809 96 168 0.0 0.0 0.00 0.00 0.00 62 1006.0
20260904182353 95 174 0.9 1.7 0.00 0.00 0.00 63 1006.0
20260904181937 96 231 1.7 2.6 0.00 0.00 0.00 61 1006.0
20260904181505 95 242 2.6 2.6 0.00 0.00 0.00 63 1006.0
20260904181048 95 195 5.2 6.1 0.00 0.00 0.00 61 1006.0
20260904180616 96 131 2.6 2.6 0.00 0.00 0.00 61 1006.0
20260904180128 95 249 3.5 3.5 0.00 0.00 0.00 60 1006.4
20260904175656 96 221 1.7 1.7 0.00 0.00 0.00 63 1006.4
20260904175224 96 210 0.9 0.9 0.00 0.00 0.00 61 1006.7
20260904174806 95 268 2.6 2.6 0.00 0.00 0.00 65 1006.4
20260904173411 94 220 4.3 5.2 0.00 0.00 0.00 62 1007.1
20260904172505 95 215 0.9 0.9 0.00 0.00 0.00 65 1007.1
20260904172047 94 189 0.9 0.9 0.00 0.00 0.00 65 1007.4
20260904171629 94 192 1.7 1.7 0.00 0.00 0.00 67 1007.4
20260904170712 97 215 0.9 1.7 0.00 0.00 0.00 66 1007.4
20260904170253 96 165 0.0 0.0 0.00 0.00 0.00 64 1007.4
20260904165836 94 332 1.7 2.6 0.00 0.00 0.00 66 1007.4
20260904164949 95 208 0.9 1.7 0.00 0.00 0.00 69 1007.7
20260904164532 94 193 0.0 0.9 0.00 0.00 0.00 67 1007.7
20260904164115 94 129 0.0 0.9 0.00 0.00 0.00 67 1007.4
20260904163644 94 157 1.7 1.7 0.00 0.00 0.00 68 1007.4
20260904163227 94 177 0.0 0.0 0.00 0.00 0.00 72 1007.4
20260904162809 93 193 1.7 1.7 0.00 0.00 0.00 69 1007.7
20260904162337 93 160 0.0 0.9 0.00 0.00 0.00 70 1007.7
20260904161921 92 181 1.7 1.7 0.00 0.00 0.00 72 1007.7
20260904161033 92 163 1.7 1.7 0.00 0.00 0.00 74 1007.7
20260904160617 92 98 0.9 0.9 0.00 0.00 0.00 72 1007.7
20260904160202 92 192 0.9 0.9 0.00 0.00 0.00 74 1008.1
20260904155746 92 54 0.9 0.9 0.00 0.00 0.00 73 1007.7
20260904155328 92 221 0.9 0.9 0.00 0.00 0.00 76 1007.7
20260904154911 91 149 0.0 0.0 0.00 0.00 0.00 73 1008.1
20260904154454 91 192 0.9 0.9 0.00 0.00 0.00 78 1008.1
20260904154023 91 180 0.0 0.9 0.00 0.00 0.00 75 1007.7
20260904153607 90 184 0.9 0.9 0.00 0.00 0.00 77 1008.1
20260904153149 91 180 0.9 0.9 0.00 0.00 0.00 75 1008.1
20260904152247 90 158 0.9 0.9 0.00 0.00 0.00 77 1007.7
20260904151827 89 132 0.0 0.0 0.00 0.00 0.00 77 1007.7
20260904151409 89 162 0.0 0.0 0.00 0.00 0.00 77 1007.7
20260904150951 88 180 0.9 0.9 0.00 0.00 0.00 78 1007.7
20260904150536 88 169 0.9 0.9 0.00 0.00 0.00 83 1007.7
20260904150120 87 169 0.0 0.9 0.00 0.00 0.00 81 1008.1
20260904145230 86 147 0.0 0.0 0.00 0.00 0.00 86 1007.7
20260904144758 85 143 0.9 0.9 0.00 0.00 0.00 86 1008.1
20260904144328 85 199 0.9 0.9 0.00 0.00 0.00 88 1008.1
20260904143854 84 145 0.0 0.0 0.00 0.00 0.00 90 1008.1
20260904143437 84 169 0.0 0.0 0.00 0.00 0.00 91 1007.7
20260904143006 83 164 0.9 0.9 0.00 0.00 0.00 93 1007.7
20260904142549 82 162 0.0 0.0 0.00 0.00 0.00 94 1008.1
20260904141703 82 181 0.9 0.9 0.00 0.00 0.00 94 1007.7
20260904141247 82 174 0.9 0.9 0.00 0.00 0.00 94 1007.7
20260904140832 81 148 0.0 0.0 0.00 0.00 0.00 95 1008.1
20260904140416 81 164 0.9 0.9 0.00 0.00 0.00 96 1007.7
20260904135958 80 148 0.0 0.9 0.00 0.00 0.00 97 1008.1
20260904135540 80 161 0.0 0.9 0.00 0.00 0.00 97 1008.1
20260904135123 80 176 0.0 0.9 0.00 0.00 0.00 97 1007.7
20260904134706 80 153 0.0 0.0 0.00 0.00 0.00 98 1008.1
20260904134235 79 181 0.0 0.0 0.00 0.00 0.00 98 1008.1
20260904133802 79 157 0.0 0.9 0.00 0.00 0.00 99 1008.1
20260904133346 78 177 0.9 0.9 0.00 0.00 0.00 99 1008.4
20260904132928 77 47 0.9 0.9 0.00 0.00 0.00 99 1007.7
20260904132042 77 115 0.0 0.0 0.00 0.00 0.00 99 1008.1
20260904131611 77 167 0.0 0.9 0.00 0.00 0.00 99 1008.1
20260904131155 76 143 0.0 0.0 0.00 0.00 0.00 99 1008.1